Time,TemperatureF,DewpointF,PressureIn,WindDirection,WindDirectionDegrees,WindSpeedMPH,WindSpeedGustMPH,Humidity,HourlyPrecipIn,Conditions,Clouds,dailyrainin,SoftwareType,DateUTC
2013-12-31 00:02:00,26.0,24.0,-100.00,WSW,241,3.0,4.0,91,0.00,,,0.00,,2013-12-31 07:02:00,
2013-12-31 00:22:00,27.0,24.0,-100.00,WNW,294,4.0,5.0,91,0.00,,,0.00,,2013-12-31 07:22:00,
2013-12-31 00:32:00,27.0,24.0,-100.00,WNW,294,4.0,5.0,91,0.00,,,0.00,,2013-12-31 07:32:00,
2013-12-31 00:52:00,26.0,24.0,-100.00,NW,309,3.0,4.0,90,0.00,,,0.00,,2013-12-31 07:52:00,
2013-12-31 01:02:00,26.0,24.0,-100.00,NW,309,3.0,4.0,90,0.00,,,0.00,,2013-12-31 08:02:00,
2013-12-31 01:22:00,26.0,24.0,-100.00,ENE,58,6.0,7.0,90,0.00,,,0.00,,2013-12-31 08:22:00,
2013-12-31 01:32:00,26.0,24.0,-100.00,ENE,58,6.0,7.0,90,0.00,,,0.00,,2013-12-31 08:32:00,
2013-12-31 01:52:00,26.0,24.0,-100.00,NNW,330,4.0,5.0,90,0.00,,,0.00,,2013-12-31 08:52:00,
2013-12-31 02:02:00,26.0,24.0,-100.00,NNW,330,4.0,5.0,90,0.00,,,0.00,,2013-12-31 09:02:00,
2013-12-31 02:22:00,26.0,24.0,-100.00,North,359,2.0,3.0,90,0.00,,,0.00,,2013-12-31 09:22:00,
2013-12-31 02:33:00,26.0,24.0,-100.00,North,359,2.0,3.0,90,0.00,,,0.00,,2013-12-31 09:33:00,
2013-12-31 02:53:00,27.0,24.0,-100.00,NE,51,2.0,3.0,90,0.00,,,0.00,,2013-12-31 09:53:00,
2013-12-31 03:02:00,27.0,24.0,-100.00,NE,51,2.0,3.0,90,0.00,,,0.00,,2013-12-31 10:02:00,
2013-12-31 03:23:00,27.0,25.0,-100.00,NE,55,7.0,9.0,90,0.00,,,0.00,,2013-12-31 10:23:00,
2013-12-31 03:33:00,27.0,25.0,-100.00,NE,55,7.0,9.0,90,0.00,,,0.00,,2013-12-31 10:33:00,
2013-12-31 03:53:00,28.0,26.0,-100.00,South,169,5.0,7.0,91,0.00,,,0.00,,2013-12-31 10:53:00,
2013-12-31 04:02:00,28.0,26.0,-100.00,South,169,5.0,7.0,91,0.00,,,0.00,,2013-12-31 11:02:00,
2013-12-31 04:22:00,29.0,25.0,-100.00,SSE,148,7.0,8.0,87,0.00,,,0.00,,2013-12-31 11:22:00,
2013-12-31 04:32:00,29.0,25.0,-100.00,SSE,148,7.0,8.0,87,0.00,,,0.00,,2013-12-31 11:32:00,
2013-12-31 04:53:00,30.0,26.0,-100.00,SSE,152,4.0,5.0,84,0.00,,,0.00,,2013-12-31 11:53:00,
2013-12-31 05:02:00,30.0,26.0,-100.00,SSE,152,4.0,5.0,84,0.00,,,0.00,,2013-12-31 12:02:00,
2013-12-31 05:22:00,29.0,25.0,-100.00,WNW,291,2.0,4.0,88,0.00,,,0.00,,2013-12-31 12:22:00,
2013-12-31 05:32:00,29.0,25.0,-100.00,WNW,291,2.0,4.0,88,0.00,,,0.00,,2013-12-31 12:32:00,
2013-12-31 05:52:00,29.0,26.0,-100.00,East,83,0.0,1.0,91,0.00,,,0.00,,2013-12-31 12:52:00,
2013-12-31 06:02:00,29.0,26.0,-100.00,East,83,0.0,1.0,91,0.00,,,0.00,,2013-12-31 13:02:00,
2013-12-31 06:21:00,29.0,26.0,-100.00,SSW,209,1.0,2.0,89,0.00,,,0.00,,2013-12-31 13:21:00,
2013-12-31 06:32:00,29.0,26.0,-100.00,SSW,209,1.0,2.0,89,0.00,,,0.00,,2013-12-31 13:32:00,
2013-12-31 09:23:00,35.0,24.0,-100.00,SSW,206,6.0,8.0,63,0.00,,,0.00,,2013-12-31 16:23:00,
2013-12-31 09:33:00,35.0,24.0,-100.00,SSW,206,6.0,8.0,63,0.00,,,0.00,,2013-12-31 16:33:00,
2013-12-31 09:52:00,30.0,26.0,-100.00,NW,325,6.0,8.0,86,0.00,,,0.00,,2013-12-31 16:52:00,
2013-12-31 10:02:00,30.0,26.0,-100.00,NW,325,6.0,8.0,86,0.00,,,0.00,,2013-12-31 17:02:00,
2013-12-31 10:22:00,31.0,26.0,-100.00,NE,52,7.0,9.0,81,0.00,,,0.00,,2013-12-31 17:22:00,
2013-12-31 10:32:00,31.0,26.0,-100.00,NE,52,7.0,9.0,81,0.00,,,0.00,,2013-12-31 17:32:00,
2013-12-31 10:53:00,31.0,26.0,-100.00,NE,45,3.0,4.0,81,0.00,,,0.00,,2013-12-31 17:53:00,
2013-12-31 11:02:00,31.0,26.0,-100.00,NE,45,3.0,4.0,81,0.00,,,0.00,,2013-12-31 18:02:00,
2013-12-31 12:53:00,36.0,26.0,-100.00,WSW,253,6.0,8.0,64,0.00,,,0.00,,2013-12-31 19:53:00,
2013-12-31 13:02:00,36.0,26.0,-100.00,WSW,253,6.0,8.0,64,0.00,,,0.00,,2013-12-31 20:02:00,
2013-12-31 13:21:00,37.0,26.0,-100.00,WSW,247,3.0,4.0,64,0.00,,,0.00,,2013-12-31 20:21:00,
2013-12-31 13:32:00,37.0,26.0,-100.00,WSW,247,3.0,4.0,64,0.00,,,0.00,,2013-12-31 20:32:00,
2013-12-31 13:53:00,39.0,26.0,-100.00,SSE,148,4.0,6.0,60,0.00,,,0.00,,2013-12-31 20:53:00,
2013-12-31 14:02:00,39.0,26.0,-100.00,SSE,148,4.0,6.0,60,0.00,,,0.00,,2013-12-31 21:02:00,
2013-12-31 14:21:00,41.0,27.0,-100.00,SSW,198,4.0,5.0,55,0.00,,,0.00,,2013-12-31 21:21:00,
2013-12-31 14:33:00,41.0,27.0,-100.00,SSW,198,4.0,5.0,55,0.00,,,0.00,,2013-12-31 21:33:00,
2013-12-31 14:53:00,44.0,28.0,-100.00,SSW,210,10.0,13.0,52,0.00,,,0.00,,2013-12-31 21:53:00,
2013-12-31 15:03:00,44.0,28.0,-100.00,SSW,210,10.0,13.0,52,0.00,,,0.00,,2013-12-31 22:03:00,
2013-12-31 15:23:00,45.0,27.0,-100.00,SSW,213,20.0,24.0,49,0.00,,,0.00,,2013-12-31 22:23:00,
2013-12-31 15:33:00,45.0,27.0,-100.00,SSW,213,20.0,24.0,49,0.00,,,0.00,,2013-12-31 22:33:00,
2013-12-31 15:53:00,45.0,26.0,-100.00,SSW,213,15.0,18.0,47,0.00,,,0.00,,2013-12-31 22:53:00,
2013-12-31 16:02:00,45.0,26.0,-100.00,SSW,213,15.0,18.0,47,0.00,,,0.00,,2013-12-31 23:02:00,
2013-12-31 16:22:00,44.0,27.0,-100.00,SSW,206,11.0,14.0,50,0.00,,,0.00,,2013-12-31 23:22:00,
2013-12-31 16:33:00,44.0,27.0,-100.00,SSW,206,11.0,14.0,50,0.00,,,0.00,,2013-12-31 23:33:00,
2013-12-31 16:53:00,44.0,29.0,-100.00,SSW,203,8.0,10.0,55,0.00,,,0.00,,2013-12-31 23:53:00,
2013-12-31 17:02:00,44.0,29.0,-100.00,SSW,203,8.0,10.0,55,0.00,,,0.00,,2014-01-01 00:02:00,
2013-12-31 17:22:00,44.0,29.0,-100.00,SSW,205,13.0,15.0,56,0.00,,,0.00,,2014-01-01 00:22:00,
2013-12-31 17:31:00,44.0,29.0,-100.00,SSW,205,13.0,15.0,56,0.00,,,0.00,,2014-01-01 00:31:00,
2013-12-31 17:52:00,43.0,30.0,-100.00,SSW,199,19.0,23.0,62,0.00,,,0.00,,2014-01-01 00:52:00,
2013-12-31 18:02:00,43.0,30.0,-100.00,SSW,199,19.0,23.0,62,0.00,,,0.00,,2014-01-01 01:02:00,
2013-12-31 18:21:00,43.0,31.0,-100.00,SSW,192,15.0,20.0,64,0.00,,,0.00,,2014-01-01 01:21:00,
2013-12-31 18:32:00,43.0,31.0,-100.00,SSW,192,15.0,20.0,64,0.00,,,0.00,,2014-01-01 01:32:00,
2013-12-31 18:52:00,43.0,30.0,-100.00,SSW,205,19.0,26.0,62,0.00,,,0.00,,2014-01-01 01:52:00,
2013-12-31 19:02:00,43.0,30.0,-100.00,SSW,205,19.0,26.0,62,0.00,,,0.00,,2014-01-01 02:02:00,
2013-12-31 19:22:00,43.0,31.0,-100.00,SSW,210,20.0,23.0,61,0.00,,,0.00,,2014-01-01 02:22:00,
2013-12-31 19:32:00,43.0,31.0,-100.00,SSW,210,20.0,23.0,61,0.00,,,0.00,,2014-01-01 02:32:00,
2013-12-31 19:52:00,43.0,30.0,-100.00,SSW,212,24.0,30.0,58,0.00,,,0.00,,2014-01-01 02:52:00,
2013-12-31 20:02:00,43.0,30.0,-100.00,SSW,212,24.0,30.0,58,0.00,,,0.00,,2014-01-01 03:02:00,
2013-12-31 20:22:00,43.0,29.0,-100.00,SW,220,20.0,24.0,57,0.00,,,0.00,,2014-01-01 03:22:00,
2013-12-31 20:33:00,43.0,29.0,-100.00,SW,220,20.0,24.0,57,0.00,,,0.00,,2014-01-01 03:33:00,
2013-12-31 20:53:00,42.0,30.0,-100.00,WSW,243,14.0,18.0,62,0.00,,,0.00,,2014-01-01 03:53:00,
2013-12-31 21:03:00,42.0,30.0,-100.00,WSW,243,14.0,18.0,62,0.00,,,0.00,,2014-01-01 04:03:00,
2013-12-31 21:23:00,39.0,29.0,-100.00,WSW,257,11.0,14.0,68,0.00,,,0.00,,2014-01-01 04:23:00,
2013-12-31 21:33:00,39.0,29.0,-100.00,WSW,257,11.0,14.0,68,0.00,,,0.00,,2014-01-01 04:33:00,
2013-12-31 21:53:00,37.0,29.0,-100.00,WNW,294,6.0,8.0,72,0.00,,,0.00,,2014-01-01 04:53:00,
2013-12-31 22:02:00,37.0,29.0,-100.00,WNW,294,6.0,8.0,72,0.00,,,0.00,,2014-01-01 05:02:00,
2013-12-31 22:22:00,35.0,28.0,-100.00,NNE,23,2.0,3.0,78,0.00,,,0.00,,2014-01-01 05:22:00,
2013-12-31 22:33:00,35.0,28.0,-100.00,NNE,23,2.0,3.0,78,0.00,,,0.00,,2014-01-01 05:33:00,
2013-12-31 22:52:00,35.0,28.0,-100.00,ENE,76,4.0,6.0,77,0.00,,,0.00,,2014-01-01 05:52:00,
2013-12-31 23:02:00,35.0,28.0,-100.00,ENE,76,4.0,6.0,77,0.00,,,0.00,,2014-01-01 06:02:00,
2013-12-31 23:22:00,35.0,30.0,-100.00,South,172,6.0,7.0,82,0.00,,,0.00,,2014-01-01 06:22:00,
2013-12-31 23:32:00,35.0,30.0,-100.00,South,172,6.0,7.0,82,0.00,,,0.00,,2014-01-01 06:32:00,
2013-12-31 23:52:00,35.0,30.0,-100.00,SSW,192,8.0,9.0,82,0.00,,,0.00,,2014-01-01 06:52:00,